1998-067WP (59596 NORAD) Tracking and Keplerian Element Data

This shows tracking and keplerian element data for the satellite.

Feedback or suggestion? Click here.




ElementValue
Catalog59596
Name1998-067WP
Epoch Orbit791
Epoch Day159.93841087
Epoch Year2024
RAAN359.1246
Inclination51.6359
Eccentricity0.0007083
Argument of Perigee236.3466
Mean Anonmoly123.6853
Mean Motion15.61386885
Decay Rate0.00137878
L11 59596U 98067WP 24159.93841087 .00137878 00000+0 15635-2 0 9990
L22 59596 51.6359 359.1246 0007083 236.3466 123.6853 15.61386885 7919



Live tracking and technical data element details for 1998-067WP (NORAD 59596). 1998-067WP can be tracked NOW for your location showing map with azimuth and elevation plus other details from your city location.







IsCatalogInMostPopularTable: catalog: 59596, numindb: 12
Update: records affected: 1



GetName: 59596 1998-067WP

Hit Count: updated at: Fri, 14 Jun 2024 18:07:00 GMT